FW3936 Weather Reports


Display with metric or nautical units.
time (UTC)temp
F
wind
direction
speed
MPH
gust
MPH
rain 1hr
in
rain 24hr
in
rain mn
in
humidity
%
barometer
mb
20260903082016 78 122 0.0 3.0 0.00 0.00 0.00 72 1014.6
20260903081514 78 122 1.0 3.0 0.00 0.00 0.00 72 1014.6
20260903081017 78 122 1.0 4.0 0.00 0.00 0.00 72 1014.6
20260903080514 78 122 1.0 5.0 0.00 0.00 0.00 72 1014.6
20260903080013 78 122 1.0 5.0 0.00 0.00 0.00 72 1014.7
20260903075512 78 122 2.0 7.0 0.00 0.00 0.00 72 1014.7
20260903075012 79 123 1.0 7.0 0.00 0.00 0.00 71 1014.7
20260903074512 79 123 1.0 3.0 0.00 0.00 0.00 71 1014.7
20260903074011 79 123 1.0 3.0 0.00 0.00 0.00 71 1014.7
20260903073511 79 123 1.0 3.0 0.00 0.00 0.00 71 1014.7
20260903073016 79 123 0.0 2.0 0.00 0.00 0.00 71 1014.7
20260903072509 79 123 0.0 2.0 0.00 0.00 0.00 71 1014.6
20260903072009 79 123 0.0 2.0 0.00 0.00 0.00 71 1014.7
20260903071509 79 123 0.0 3.0 0.00 0.00 0.00 71 1014.7
20260903071008 79 123 0.0 5.0 0.00 0.00 0.00 71 1014.7
20260903070507 80 123 0.0 5.0 0.00 0.00 0.00 70 1014.8
20260903070008 80 123 0.0 4.0 0.00 0.00 0.00 70 1014.8
20260903065507 80 123 1.0 7.0 0.00 0.00 0.00 70 1014.8
20260903065006 80 122 2.0 7.0 0.00 0.00 0.00 70 1014.8
20260903064506 80 124 2.0 7.0 0.00 0.00 0.00 70 1014.8
20260903064005 80 128 2.0 5.0 0.00 0.00 0.00 69 1014.8
20260903063505 80 128 1.0 4.0 0.00 0.00 0.00 69 1014.8
20260903063005 80 128 2.0 5.0 0.00 0.00 0.00 69 1014.8
20260903062503 81 128 2.0 5.0 0.00 0.00 0.00 69 1014.7
20260903062003 81 132 2.0 7.0 0.00 0.00 0.00 68 1014.8
20260903061503 81 133 2.0 7.0 0.00 0.00 0.00 68 1014.9
20260903061002 81 104 2.0 9.0 0.00 0.00 0.00 68 1014.8
20260903060501 81 96 2.0 9.0 0.00 0.00 0.00 68 1014.8
20260903060004 81 120 3.0 7.0 0.00 0.00 0.00 68 1014.9
20260903055504 81 111 3.0 7.0 0.00 0.00 0.00 67 1014.9
20260903055101 81 84 3.0 8.0 0.00 0.00 0.00 67 1015.0
20260903054600 81 114 2.0 8.0 0.00 0.00 0.00 67 1015.1
20260903054059 81 98 3.0 9.0 0.00 0.00 0.00 66 1015.0
20260903053600 81 101 3.0 9.0 0.00 0.00 0.00 66 1015.0
20260903053057 82 95 3.0 7.0 0.00 0.00 0.00 66 1015.0
20260903052557 82 109 1.0 5.0 0.00 0.00 0.00 67 1014.8
20260903052058 82 109 1.0 5.0 0.00 0.00 0.00 66 1014.9
20260903051602 82 115 1.0 4.0 0.00 0.00 0.00 66 1014.8
20260903051052 82 115 0.0 5.0 0.00 0.00 0.00 65 1014.7
20260903050552 83 115 2.0 5.0 0.00 0.00 0.00 65 1014.6
20260903050051 83 115 1.0 3.0 0.00 0.00 0.00 65 1014.6
20260903045551 83 115 0.0 3.0 0.00 0.00 0.00 65 1014.4
20260903045050 83 115 0.0 5.0 0.00 0.00 0.00 65 1014.4
20260903044550 83 115 2.0 5.0 0.00 0.00 0.00 65 1014.4
20260903044050 83 107 1.0 5.0 0.00 0.00 0.00 64 1014.3
20260903043549 83 95 2.0 8.0 0.00 0.00 0.00 64 1014.3
20260903043049 84 78 2.0 8.0 0.00 0.00 0.00 64 1014.2
20260903042549 84 104 1.0 7.0 0.00 0.00 0.00 63 1014.2
20260903042049 84 104 1.0 7.0 0.00 0.00 0.00 63 1014.2
20260903041549 84 104 1.0 6.0 0.00 0.00 0.00 62 1014.3
20260903041050 84 104 2.0 6.0 0.00 0.00 0.00 62 1014.2
20260903040548 84 105 2.0 7.0 0.00 0.00 0.00 62 1014.2
20260903040100 83 107 2.0 5.0 0.00 0.00 0.00 62 1014.2
20260903035548 83 106 2.0 7.0 0.00 0.00 0.00 61 1014.1
20260903035048 83 107 3.0 7.0 0.00 0.00 0.00 60 1014.1
20260903034548 83 138 1.0 6.0 0.00 0.00 0.00 57 1014.0
20260903034048 84 143 1.0 3.0 0.00 0.00 0.00 56 1013.9
20260903033547 84 144 0.0 3.0 0.00 0.00 0.00 56 1013.9
20260903033049 84 144 0.0 4.0 0.00 0.00 0.00 56 1013.9
20260903032550 83 144 2.0 4.0 0.00 0.00 0.00 56 1013.7
20260903032047 83 144 1.0 5.0 0.00 0.00 0.00 54 1013.7
20260903031547 83 144 2.0 5.0 0.00 0.00 0.00 54 1013.7
20260903031046 84 149 0.0 0.0 0.00 0.00 0.00 53 1013.4
20260903030546 84 149 0.0 0.0 0.00 0.00 0.00 53 1013.3
20260903030046 84 149 0.0 0.0 0.00 0.00 0.00 53 1013.2
20260903025546 84 149 0.0 0.0 0.00 0.00 0.00 53 1013.1
20260903025045 84 149 0.0 0.0 0.00 0.00 0.00 52 1013.1
20260903024546 84 149 0.0 0.0 0.00 0.00 0.00 52 1013.0
20260903024046 85 149 0.0 0.0 0.00 0.00 0.00 52 1013.0
20260903023544 85 149 0.0 0.0 0.00 0.00 0.00 51 1012.9
20260903023053 85 149 0.0 0.0 0.00 0.00 0.00 51 1012.8
20260903022545 85 149 0.0 0.0 0.00 0.00 0.00 50 1012.8
20260903022046 85 149 0.0 0.0 0.00 0.00 0.00 51 1012.8
20260903021545 85 149 0.0 0.0 0.00 0.00 0.00 50 1012.6
20260903021045 86 149 0.0 0.0 0.00 0.00 0.00 50 1012.7
20260903020544 86 149 0.0 0.0 0.00 0.00 0.00 50 1012.6
20260903020044 86 149 0.0 0.0 0.00 0.00 0.00 48 1012.5
20260903015544 86 149 0.0 0.0 0.00 0.00 0.00 48 1012.5
20260903015044 87 149 0.0 0.0 0.00 0.00 0.00 47 1012.5
20260903014554 87 149 0.0 0.0 0.00 0.00 0.00 47 1012.4
20260903014043 87 149 0.0 0.0 0.00 0.00 0.00 46 1012.3
20260903013542 88 149 0.0 2.0 0.00 0.00 0.00 47 1012.3
20260903013049 88 149 0.0 1.0 0.00 0.00 0.00 46 1012.3
20260903012542 88 149 0.0 0.0 0.00 0.00 0.00 45 1012.2
20260903012042 89 149 0.0 0.0 0.00 0.00 0.00 44 1012.2
20260903011544 89 149 0.0 0.0 0.00 0.00 0.00 44 1012.1
20260903011041 89 149 0.0 0.0 0.00 0.00 0.00 43 1012.1
20260903010544 90 149 0.0 1.0 0.00 0.00 0.00 43 1012.1
20260903010047 90 149 0.0 1.0 0.00 0.00 0.00 43 1012.2
20260903005541 90 149 0.0 1.0 0.00 0.00 0.00 41 1012.1
20260903005041 91 149 0.0 0.0 0.00 0.00 0.00 41 1012.2
20260903004542 91 149 0.0 0.0 0.00 0.00 0.00 41 1012.2
20260903004040 92 149 0.0 0.0 0.00 0.00 0.00 40 1012.2
20260903003540 92 149 0.0 0.0 0.00 0.00 0.00 40 1012.2
20260903003041 92 149 0.0 0.0 0.00 0.00 0.00 40 1012.2
20260903002539 93 149 0.0 0.0 0.00 0.00 0.00 39 1012.2
20260903002038 93 149 0.0 1.0 0.00 0.00 0.00 39 1012.2
20260903001541 93 149 0.0 1.0 0.00 0.00 0.00 38 1012.2
20260903001038 94 149 0.0 0.0 0.00 0.00 0.00 37 1012.2
20260903000538 94 149 0.0 3.0 0.00 0.00 0.00 37 1012.2
20260903000038 94 149 0.0 3.0 0.00 0.00 0.00 36 1012.2
20260902235537 94 149 0.0 3.0 0.00 0.00 0.00 36 1012.3
20260902235038 94 149 0.0 1.0 0.00 0.00 0.00 36 1012.2
20260902234551 95 149 0.0 3.0 0.00 0.00 0.00 36 1012.2
20260902234037 95 149 1.0 4.0 0.00 0.00 0.00 36 1012.3
20260902233537 95 149 1.0 4.0 0.00 0.00 0.00 35 1012.3
20260902233040 95 150 1.0 3.0 0.00 0.00 0.00 35 1012.4
20260902232536 95 150 1.0 3.0 0.00 0.00 0.00 34 1012.4
20260902232036 95 150 1.0 3.0 0.00 0.00 0.00 34 1012.4
20260902231543 95 150 1.0 3.0 0.00 0.00 0.00 34 1012.3
20260902231037 95 151 0.0 6.0 0.00 0.00 0.00 34 1012.3
20260902230537 96 157 2.0 6.0 0.00 0.00 0.00 33 1012.3
20260902230036 96 113 1.0 5.0 0.00 0.00 0.00 33 1012.3
20260902225536 96 114 2.0 5.0 0.00 0.00 0.00 33 1012.3
20260902225036 96 116 0.0 5.0 0.00 0.00 0.00 34 1012.3
20260902224541 96 116 1.0 5.0 0.00 0.00 0.00 32 1012.3
20260902224036 97 122 1.0 5.0 0.00 0.00 0.00 33 1012.3
20260902223534 97 123 1.0 7.0 0.00 0.00 0.00 32 1012.3
20260902223034 97 123 1.0 7.0 0.00 0.00 0.00 32 1012.3
20260902222535 97 123 1.0 4.0 0.00 0.00 0.00 32 1012.4
20260902222033 97 123 0.0 2.0 0.00 0.00 0.00 32 1012.4
20260902221533 97 123 0.0 5.0 0.00 0.00 0.00 32 1012.4
20260902221032 97 123 2.0 5.0 0.00 0.00 0.00 31 1012.5
20260902220532 98 128 1.0 6.0 0.00 0.00 0.00 32 1012.5
20260902220035 98 126 3.0 7.0 0.00 0.00 0.00 31 1012.5
20260902215530 98 118 0.0 4.0 0.00 0.00 0.00 32 1012.6
20260902215031 98 118 2.0 4.0 0.00 0.00 0.00 33 1012.6
20260902214530 99 118 2.0 4.0 0.00 0.00 0.00 32 1012.6
20260902214030 99 121 0.0 7.0 0.00 0.00 0.00 33 1012.7
20260902213528 99 116 2.0 7.0 0.00 0.00 0.00 33 1012.7
20260902213029 99 133 0.0 4.0 0.00 0.00 0.00 32 1012.8
20260902212529 99 134 0.0 5.0 0.00 0.00 0.00 33 1012.8
20260902212028 98 134 0.0 5.0 0.00 0.00 0.00 32 1012.8
20260902211535 99 139 0.0 3.0 0.00 0.00 0.00 31 1012.9
20260902211126 99 139 0.0 4.0 0.00 0.00 0.00 34 1012.9
20260902210526 99 139 1.0 5.0 0.00 0.00 0.00 33 1013.0
20260902210025 99 139 1.0 6.0 0.00 0.00 0.00 31 1013.1
20260902205525 100 140 1.0 6.0 0.00 0.00 0.00 32 1013.1
20260902205024 100 140 1.0 11.0 0.00 0.00 0.00 31 1013.1
20260902204525 99 139 4.0 11.0 0.00 0.00 0.00 33 1013.3
20260902204022 100 115 2.0 8.0 0.00 0.00 0.00 32 1013.4
20260902203526 100 114 2.0 9.0 0.00 0.00 0.00 33 1013.4
20260902203022 100 117 1.0 9.0 0.00 0.00 0.00 33 1013.4
20260902202522 100 140 0.0 7.0 0.00 0.00 0.00 34 1013.5
20260902202021 100 155 1.0 5.0 0.00 0.00 0.00 34 1013.7
20260902201528 100 155 1.0 8.0 0.00 0.00 0.00 33 1013.7
20260902201019 100 97 4.0 8.0 0.00 0.00 0.00 34 1013.8
20260902200518 100 130 1.0 5.0 0.00 0.00 0.00 34 1013.9
20260902200017 100 128 1.0 6.0 0.00 0.00 0.00 35 1014.0
20260902195516 99 91 0.0 11.0 0.00 0.00 0.00 35 1014.2
20260902195014 99 90 5.0 11.0 0.00 0.00 0.00 34 1014.3
20260902194514 99 90 2.0 8.0 0.00 0.00 0.00 35 1014.3
20260902194014 99 80 3.0 8.0 0.00 0.00 0.00 35 1014.3
20260902193512 99 134 1.0 6.0 0.00 0.00 0.00 35 1014.4
20260902193012 99 134 3.0 8.0 0.00 0.00 0.00 35 1014.5
20260902192509 99 148 2.0 5.0 0.00 0.00 0.00 37 1014.7
20260902192009 98 186 0.0 4.0 0.00 0.00 0.00 37 1014.7
20260902191508 98 134 0.0 10.0 0.00 0.00 0.00 38 1014.8
20260902191010 97 134 2.0 10.0 0.00 0.00 0.00 39 1014.9
20260902190507 97 132 1.0 4.0 0.00 0.00 0.00 37 1014.9
20260902190007 98 281 0.0 5.0 0.00 0.00 0.00 36 1015.0
20260902185506 98 281 1.0 5.0 0.00 0.00 0.00 36 1015.1
20260902185004 98 134 0.0 6.0 0.00 0.00 0.00 37 1015.2
20260902184504 98 134 1.0 8.0 0.00 0.00 0.00 37 1015.3
20260902184003 98 136 3.0 8.0 0.00 0.00 0.00 39 1015.4
20260902183502 98 131 2.0 6.0 0.00 0.00 0.00 39 1015.3
20260902183002 98 140 1.0 6.0 0.00 0.00 0.00 39 1015.6
20260902182600 98 140 2.0 6.0 0.00 0.00 0.00 40 1015.5
20260902182101 97 140 0.0 8.0 0.00 0.00 0.00 40 1015.7
20260902181559 97 140 2.0 8.0 0.00 0.00 0.00 40 1015.7
20260902181057 97 130 2.0 5.0 0.00 0.00 0.00 40 1015.8
20260902180556 97 230 0.0 7.0 0.00 0.00 0.00 40 1015.8
20260902175554 96 146 2.0 7.0 0.00 0.00 0.00 42 1016.1
20260902175053 96 150 1.0 5.0 0.00 0.00 0.00 43 1016.2
20260902174602 96 148 1.0 9.0 0.00 0.00 0.00 43 1016.2
20260902174053 96 148 3.0 9.0 0.00 0.00 0.00 43 1016.3
20260902173551 95 138 2.0 7.0 0.00 0.00 0.00 44 1016.4
20260902173049 95 99 0.0 5.0 0.00 0.00 0.00 43 1016.4
20260902172548 95 99 0.0 7.0 0.00 0.00 0.00 45 1016.5
20260902172046 95 103 2.0 7.0 0.00 0.00 0.00 44 1016.5
20260902171557 95 156 0.0 4.0 0.00 0.00 0.00 46 1016.6
20260902171049 95 157 0.0 3.0 0.00 0.00 0.00 45 1016.7
20260902170542 94 157 0.0 3.0 0.00 0.00 0.00 45 1016.7
20260902170041 94 157 1.0 4.0 0.00 0.00 0.00 45 1016.8
20260902165541 93 157 0.0 6.0 0.00 0.00 0.00 47 1016.9
20260902165039 93 157 1.0 6.0 0.00 0.00 0.00 47 1016.9
20260902164536 92 175 0.0 4.0 0.00 0.00 0.00 49 1016.8
20260902164036 92 175 0.0 5.0 0.00 0.00 0.00 48 1016.9
20260902163534 92 175 1.0 5.0 0.00 0.00 0.00 49 1016.9
20260902163034 92 225 0.0 4.0 0.00 0.00 0.00 52 1017.0
20260902162532 91 226 0.0 2.0 0.00 0.00 0.00 53 1017.0
20260902162030 91 226 0.0 4.0 0.00 0.00 0.00 54 1016.9
20260902161539 91 226 0.0 4.0 0.00 0.00 0.00 54 1016.9
20260902161028 90 238 1.0 3.0 0.00 0.00 0.00 56 1016.9
20260902160527 89 246 0.0 4.0 0.00 0.00 0.00 56 1017.0
20260902160026 89 246 1.0 4.0 0.00 0.00 0.00 57 1017.1
20260902155525 89 161 1.0 4.0 0.00 0.00 0.00 57 1017.0
20260902155027 88 161 1.0 4.0 0.00 0.00 0.00 59 1017.0
20260902154530 88 161 1.0 4.0 0.00 0.00 0.00 59 1017.0
20260902154020 87 163 0.0 4.0 0.00 0.00 0.00 59 1017.0
20260902153521 87 163 2.0 4.0 0.00 0.00 0.00 60 1017.0
20260902153018 87 262 1.0 3.0 0.00 0.00 0.00 60 1016.9
20260902152517 87 262 0.0 5.0 0.00 0.00 0.00 62 1016.9
20260902152015 86 180 0.0 5.0 0.00 0.00 0.00 62 1016.9
20260902151514 86 182 0.0 4.0 0.00 0.00 0.00 63 1017.0
20260902151013 85 182 1.0 4.0 0.00 0.00 0.00 65 1017.0
20260902150514 84 227 0.0 4.0 0.00 0.00 0.00 65 1017.0
20260902150010 84 279 0.0 4.0 0.00 0.00 0.00 67 1017.1
20260902145508 83 141 0.0 6.0 0.00 0.00 0.00 68 1017.1
20260902145009 83 141 0.0 6.0 0.00 0.00 0.00 68 1017.0
20260902144505 82 106 1.0 4.0 0.00 0.00 0.00 69 1017.0
20260902144003 82 105 0.0 3.0 0.00 0.00 0.00 70 1017.0
20260902143502 81 105 0.0 3.0 0.00 0.00 0.00 70 1017.0
20260902143001 81 105 0.0 3.0 0.00 0.00 0.00 71 1017.0
20260902142601 80 105 0.0 2.0 0.00 0.00 0.00 71 1017.0
20260902142059 80 105 0.0 4.0 0.00 0.00 0.00 71 1017.1
20260902141558 79 105 0.0 4.0 0.00 0.00 0.00 71 1017.1
20260902141058 79 105 0.0 1.0 0.00 0.00 0.00 71 1017.0
20260902140559 78 105 0.0 1.0 0.00 0.00 0.00 70 1017.0
20260902140057 78 105 0.0 1.0 0.00 0.00 0.00 70 1017.0
20260902135555 77 105 0.0 3.0 0.00 0.00 0.00 69 1017.0
20260902135054 77 105 0.0 3.0 0.00 0.00 0.00 67 1016.9
20260902134556 76 105 0.0 2.0 0.00 0.00 0.00 66 1017.0
20260902134052 76 105 0.0 2.0 0.00 0.00 0.00 65 1017.0
20260902133552 76 105 0.0 1.0 0.00 0.00 0.00 65 1016.9
20260902133053 76 105 0.0 1.0 0.00 0.00 0.00 64 1017.0
20260902132550 75 105 0.0 0.0 0.00 0.00 0.00 64 1016.9
20260902132049 75 105 0.0 1.0 0.00 0.00 0.00 65 1016.9
20260902131548 75 105 0.0 1.0 0.00 0.00 0.00 65 1016.8
20260902131048 75 105 0.0 1.0 0.00 0.00 0.00 66 1016.8
20260902130547 74 105 0.0 0.0 0.00 0.00 0.00 66 1016.7
20260902130047 74 105 0.0 0.0 0.00 0.00 0.00 68 1016.6
20260902125546 74 105 0.0 0.0 0.00 0.00 0.00 68 1016.7
20260902125045 74 105 0.0 0.0 0.00 0.00 0.00 69 1016.6
20260902124544 73 105 0.0 0.0 0.00 0.00 0.00 70 1016.6
20260902124048 73 105 0.0 0.0 0.00 0.00 0.00 70 1016.5
20260902123543 73 105 0.0 0.0 0.00 0.00 0.00 71 1016.5
20260902123044 73 105 0.0 0.0 0.00 0.00 0.00 71 1016.5
20260902122542 74 105 0.0 1.0 0.00 0.00 0.00 71 1016.4
20260902122040 74 105 0.0 3.0 0.00 0.00 0.00 71 1016.4
20260902121539 74 105 0.0 3.0 0.00 0.00 0.00 71 1016.4
20260902121139 74 105 0.0 2.0 0.00 0.00 0.00 72 1016.4
20260902120541 74 105 0.0 1.0 0.00 0.00 0.00 72 1016.3
20260902120037 74 105 0.0 1.0 0.00 0.00 0.00 71 1016.2
20260902115541 74 105 0.0 2.0 0.00 0.00 0.00 71 1016.2
20260902115037 74 105 0.0 0.0 0.00 0.00 0.00 71 1016.2
20260902114603 74 105 0.0 0.0 0.00 0.00 0.00 72 1016.2
20260902114037 74 105 0.0 0.0 0.00 0.00 0.00 72 1016.2
20260902113535 74 105 0.0 0.0 0.00 0.00 0.00 72 1016.2
20260902113047 74 105 0.0 1.0 0.00 0.00 0.00 72 1016.1
20260902112536 74 105 0.0 2.0 0.00 0.00 0.00 72 1016.2
20260902112037 75 105 0.0 2.0 0.00 0.00 0.00 72 1016.0
20260902111535 75 105 0.0 2.0 0.00 0.00 0.00 72 1016.0
20260902111034 75 105 0.0 1.0 0.00 0.00 0.00 72 1016.1
20260902110533 75 105 0.0 1.0 0.00 0.00 0.00 72 1016.2
20260902110039 75 105 0.0 1.0 0.00 0.00 0.00 72 1016.0
20260902105534 75 105 0.0 0.0 0.00 0.00 0.00 72 1016.0
20260902105035 74 105 0.0 0.0 0.00 0.00 0.00 72 1016.0
20260902104538 74 105 0.0 0.0 0.00 0.00 0.00 72 1016.0
20260902104037 74 105 0.0 0.0 0.00 0.00 0.00 72 1016.0
20260902103532 75 105 0.0 0.0 0.00 0.00 0.00 72 1016.0
20260902103032 75 105 0.0 0.0 0.00 0.00 0.00 72 1016.1
20260902102532 75 105 0.0 1.0 0.00 0.00 0.00 72 1016.0
20260902102034 75 105 0.0 1.0 0.00 0.00 0.00 72 1016.0
20260902101532 75 105 0.0 0.0 0.00 0.00 0.00 72 1016.0
20260902101034 75 105 0.0 0.0 0.00 0.00 0.00 72 1016.0
20260902100532 75 105 0.0 0.0 0.00 0.00 0.00 72 1016.0
20260902100031 75 105 0.0 0.0 0.00 0.00 0.00 72 1016.0
20260902095530 75 105 0.0 0.0 0.00 0.00 0.00 72 1016.1
20260902095033 75 105 0.0 0.0 0.00 0.00 0.00 72 1016.1
20260902094530 75 105 0.0 0.0 0.00 0.00 0.00 72 1016.1
20260902094030 75 105 0.0 0.0 0.00 0.00 0.00 72 1016.2
20260902093530 74 105 0.0 0.0 0.00 0.00 0.00 72 1016.2
20260902093029 74 105 0.0 1.0 0.00 0.00 0.00 72 1016.1
20260902092529 75 105 0.0 1.0 0.00 0.00 0.00 72 1016.2
20260902092029 75 105 0.0 0.0 0.00 0.00 0.00 72 1016.3
20260902091535 75 105 0.0 0.0 0.00 0.00 0.00 71 1016.3
20260902091027 75 105 0.0 0.0 0.00 0.00 0.00 71 1016.4
20260902090527 75 105 0.0 0.0 0.00 0.00 0.00 71 1016.3
20260902090027 75 105 0.0 0.0 0.00 0.00 0.00 71 1016.3
20260902085527 75 105 0.0 0.0 0.00 0.00 0.00 71 1016.2
20260902085026 75 105 0.0 1.0 0.00 0.00 0.00 71 1016.2
20260902084528 75 105 0.0 1.0 0.00 0.00 0.00 71 1016.2
20260902084026 75 105 0.0 1.0 0.00 0.00 0.00 71 1016.3
20260902083526 76 105 0.0 1.0 0.00 0.00 0.00 71 1016.2
20260902083028 76 105 0.0 1.0 0.00 0.00 0.00 71 1016.3
20260902082523 76 105 0.0 1.0 0.00 0.00 0.00 70 1016.4